"datetime","# probes","# resolvers","can_ipv6","can_ipv6_prbs","can_tcp","can_tcp_prbs","can_tcp6","can_tcp6_prbs","does_ecs","does_ecs_prbs","does_flagday","does_flagday_prbs","does_rov4","does_rov4_prbs","does_rov6","does_rov6_prbs","does_qnamemin","doesnt_qnamemin","does_qnamemin_prbs","doesnt_qnamemin_prbs","does_nxdomain","doesnt_nxdomain","does_nxdomain_prbs","doesnt_nxdomain_prbs","has_ta_19036","hasnt_ta_19036","has_ta_19036_prbs","hasnt_ta_19036_prbs","has_ta_20326","hasnt_ta_20326","has_ta_20326_prbs","hasnt_ta_20326_prbs","can_rsamd5","cannot_rsamd5","broken_rsamd5","can_rsamd5_prbs","cannot_rsamd5_prbs","broken_rsamd5_prbs","can_dsa","cannot_dsa","broken_dsa","can_dsa_prbs","cannot_dsa_prbs","broken_dsa_prbs","can_rsasha1","cannot_rsasha1","broken_rsasha1","can_rsasha1_prbs","cannot_rsasha1_prbs","broken_rsasha1_prbs","can_dsansec3","cannot_dsansec3","broken_dsansec3","can_dsansec3_prbs","cannot_dsansec3_prbs","broken_dsansec3_prbs","can_rsansec3","cannot_rsansec3","broken_rsansec3","can_rsansec3_prbs","cannot_rsansec3_prbs","broken_rsansec3_prbs","can_rsasha256","cannot_rsasha256","broken_rsasha256","can_rsasha256_prbs","cannot_rsasha256_prbs","broken_rsasha256_prbs","can_rsasha512","cannot_rsasha512","broken_rsasha512","can_rsasha512_prbs","cannot_rsasha512_prbs","broken_rsasha512_prbs","can_eccgost","cannot_eccgost","broken_eccgost","can_eccgost_prbs","cannot_eccgost_prbs","broken_eccgost_prbs","can_ecdsa256","cannot_ecdsa256","broken_ecdsa256","can_ecdsa256_prbs","cannot_ecdsa256_prbs","broken_ecdsa256_prbs","can_ecdsa384","cannot_ecdsa384","broken_ecdsa384","can_ecdsa384_prbs","cannot_ecdsa384_prbs","broken_ecdsa384_prbs","can_ed25519","cannot_ed25519","broken_ed25519","can_ed25519_prbs","cannot_ed25519_prbs","broken_ed25519_prbs","can_ed448","cannot_ed448","broken_ed448","can_ed448_prbs","cannot_ed448_prbs","broken_ed448_prbs","can_gost","cannot_gost","broken_gost","can_gost_prbs","cannot_gost_prbs","broken_gost_prbs","can_sha384","cannot_sha384","broken_sha384","can_sha384_prbs","cannot_sha384_prbs","broken_sha384_prbs","is_internal","is_forwarding","is_external","is_internal_prbs","is_forwarding_prbs","is_external_prbs"
2017-06-20T23:59:47Z,13,25,22,12,25,13,22,12,21,12,0,0,0,0,0,0,0,25,0,13,0,25,0,13,0,0,0,0,0,0,0,0,3,1,21,2,4,12,5,20,0,3,12,1,25,0,0,13,3,1,4,21,0,2,12,1,25,0,0,13,3,1,25,0,0,13,3,1,25,0,0,13,3,1,4,21,0,2,12,1,25,0,0,13,3,1,25,0,0,13,3,1,0,25,0,0,13,1,0,25,0,0,13,1,25,0,0,13,4,1,25,0,0,13,3,1,0,3,22,1,5,13
2017-06-21T23:59:48Z,13,25,22,12,25,13,22,12,22,12,0,0,0,0,0,0,0,25,0,13,0,25,0,13,0,0,0,0,0,0,0,0,3,1,21,2,4,12,4,21,0,2,12,1,25,0,0,13,3,1,4,21,0,2,12,1,25,0,0,13,3,1,25,0,0,13,3,1,25,0,0,13,3,1,4,21,0,2,12,1,25,0,0,13,3,1,25,0,0,13,3,1,0,25,0,0,13,1,0,25,0,0,13,1,25,0,0,13,4,1,25,0,0,13,3,1,0,3,22,1,5,13
2017-06-22T23:59:49Z,13,25,22,12,25,13,22,12,21,12,0,0,0,0,0,0,0,25,0,13,0,25,0,13,0,0,0,0,0,0,0,0,3,1,21,2,4,12,4,21,0,2,12,1,25,0,0,13,3,1,4,21,0,2,12,1,25,0,0,13,3,1,25,0,0,13,3,1,25,0,0,13,3,1,4,21,0,2,12,1,25,0,0,13,3,1,25,0,0,13,3,1,0,25,0,0,13,1,0,25,0,0,13,1,25,0,0,13,4,1,25,0,0,13,3,1,0,3,22,1,5,13
2017-06-23T23:59:50Z,13,25,22,12,25,13,22,12,22,12,0,0,0,0,0,0,0,25,0,13,0,25,0,13,0,0,0,0,0,0,0,0,3,1,21,2,4,12,4,21,0,2,12,1,25,0,0,13,3,1,4,21,0,2,12,1,25,0,0,13,3,1,25,0,0,13,3,1,25,0,0,13,3,1,4,21,0,2,12,1,25,0,0,13,3,1,25,0,0,13,3,1,0,25,0,0,13,1,0,25,0,0,13,1,25,0,0,13,4,1,25,0,0,13,3,1,0,3,22,1,5,13
2017-06-24T23:59:54Z,13,25,22,12,25,13,22,12,22,12,0,0,0,0,0,0,0,25,0,13,0,25,0,13,0,0,0,0,0,0,0,0,3,1,21,2,4,12,4,21,0,2,12,1,25,0,0,13,3,1,4,21,0,2,12,1,25,0,0,13,3,1,25,0,0,13,3,1,25,0,0,13,3,1,4,21,0,2,12,1,25,0,0,13,3,1,25,0,0,13,3,1,0,25,0,0,13,1,0,25,0,0,13,1,25,0,0,13,4,1,25,0,0,13,3,1,0,3,22,1,5,13
2017-06-25T23:59:50Z,13,25,22,12,25,13,22,12,22,12,0,0,0,0,0,0,0,25,0,13,0,25,0,13,0,0,0,0,0,0,0,0,3,1,21,2,4,12,4,21,0,2,12,1,25,0,0,13,3,1,4,21,0,2,12,1,25,0,0,13,3,1,25,0,0,13,3,1,25,0,0,13,3,1,4,21,0,2,12,1,25,0,0,13,3,1,25,0,0,13,3,1,0,25,0,0,13,1,0,25,0,0,13,1,25,0,0,13,4,1,25,0,0,13,3,1,0,3,22,1,5,13
2017-06-26T23:59:47Z,13,25,22,12,25,13,22,12,22,12,0,0,0,0,0,0,0,25,0,13,0,25,0,13,0,0,0,0,0,0,0,0,3,1,21,2,4,12,4,21,0,2,12,1,25,0,0,13,3,1,4,21,0,2,12,1,25,0,0,13,3,1,25,0,0,13,3,1,25,0,0,13,3,1,4,21,0,2,12,1,25,0,0,13,3,1,25,0,0,13,3,1,0,25,0,0,13,1,0,25,0,0,13,1,25,0,0,13,4,1,25,0,0,13,3,1,0,3,22,1,5,13
2017-06-27T23:59:48Z,12,23,20,11,23,12,20,11,19,11,0,0,0,0,0,0,0,23,0,12,0,23,0,12,0,0,0,0,0,0,0,0,3,1,19,2,4,11,4,19,0,2,11,1,23,0,0,12,3,1,4,19,0,2,11,1,23,0,0,12,3,1,23,0,0,12,3,1,23,0,0,12,3,1,4,19,0,2,11,1,23,0,0,12,3,1,23,0,0,12,3,1,0,23,0,0,12,1,0,23,0,0,12,1,23,0,0,12,4,1,23,0,0,12,3,1,0,2,21,1,4,12
2017-06-28T23:59:48Z,12,23,20,11,23,12,19,11,20,11,0,0,0,0,0,0,0,23,0,12,0,23,0,12,0,0,0,0,0,0,0,0,3,1,19,2,4,11,4,19,0,2,11,1,23,0,0,12,3,1,4,19,0,2,11,1,23,0,0,12,3,1,19,4,0,11,6,1,23,0,0,12,3,1,4,19,0,2,11,1,23,0,0,12,3,1,23,0,0,12,3,1,0,23,0,0,12,1,0,23,0,0,12,1,23,0,0,12,4,1,23,0,0,12,3,1,0,2,21,1,4,12
2017-06-29T23:59:50Z,12,23,20,11,23,12,20,11,20,11,0,0,0,0,0,0,0,23,0,12,0,23,0,12,0,0,0,0,0,0,0,0,3,1,19,2,4,11,4,19,0,2,11,1,23,0,0,12,3,1,4,19,0,2,11,1,23,0,0,12,3,1,20,3,0,11,6,1,23,0,0,12,3,1,4,19,0,2,11,1,23,0,0,12,3,1,23,0,0,12,3,1,0,23,0,0,12,1,0,23,0,0,12,1,23,0,0,12,4,1,23,0,0,12,3,1,0,2,21,1,4,12
2017-06-30T23:59:50Z,12,23,20,11,23,12,20,11,20,11,0,0,0,0,0,0,0,23,0,12,0,23,0,12,0,0,0,0,0,0,0,0,3,1,19,2,4,11,4,19,0,2,11,1,23,0,0,12,3,1,4,19,0,2,11,1,23,0,0,12,3,1,18,5,0,11,7,1,23,0,0,12,3,1,4,19,0,2,11,1,23,0,0,12,3,1,23,0,0,12,3,1,0,23,0,0,12,1,0,23,0,0,12,1,23,0,0,12,4,1,23,0,0,12,3,1,0,2,21,1,4,12
2017-07-01T23:59:47Z,12,23,20,11,23,12,20,11,20,11,0,0,0,0,0,0,0,23,0,12,0,23,0,12,0,0,0,0,0,0,0,0,3,1,19,2,4,11,4,19,0,2,11,1,23,0,0,12,3,1,4,19,0,2,11,1,23,0,0,12,3,1,17,6,0,10,7,1,23,0,0,12,3,1,4,19,0,2,11,1,23,0,0,12,3,1,23,0,0,12,3,1,0,23,0,0,12,1,0,23,0,0,12,1,23,0,0,12,4,1,23,0,0,12,3,1,0,2,21,1,4,12
2017-07-02T23:59:48Z,12,23,20,11,23,12,20,11,19,11,0,0,0,0,0,0,0,23,0,12,0,23,0,12,0,0,0,0,0,0,0,0,3,1,19,2,4,11,4,19,0,2,11,1,23,0,0,12,3,1,4,19,0,2,11,1,23,0,0,12,3,1,23,0,0,12,4,1,23,0,0,12,3,1,4,19,0,2,11,1,23,0,0,12,3,1,23,0,0,12,3,1,0,23,0,0,12,1,0,23,0,0,12,1,23,0,0,12,4,1,23,0,0,12,3,1,0,2,21,1,4,12
2017-07-03T23:59:48Z,12,23,20,11,23,12,20,11,20,11,0,0,0,0,0,0,0,23,0,12,0,23,0,12,0,0,0,0,0,0,0,0,3,1,19,2,4,11,4,19,0,2,11,1,23,0,0,12,3,1,4,19,0,2,11,1,23,0,0,12,3,1,17,6,0,10,6,1,22,1,0,12,4,1,4,19,0,2,11,1,23,0,0,12,3,1,23,0,0,12,3,1,0,23,0,0,12,1,0,23,0,0,12,1,23,0,0,12,4,1,23,0,0,12,3,1,0,2,21,1,4,12
2017-07-04T23:59:50Z,12,23,20,11,23,12,20,11,20,11,0,0,0,0,0,0,0,23,0,12,0,23,0,12,0,0,0,0,0,0,0,0,3,1,19,2,4,11,4,19,0,2,11,1,23,0,0,12,3,1,4,19,0,2,11,1,23,0,0,12,3,1,22,1,0,12,5,1,23,0,0,12,3,1,4,19,0,2,11,1,23,0,0,12,3,1,23,0,0,12,3,1,0,23,0,0,12,1,0,23,0,0,12,1,23,0,0,12,4,1,23,0,0,12,3,1,0,2,21,1,4,12
2017-07-05T23:59:47Z,12,23,20,11,23,12,19,11,19,11,0,0,0,0,0,0,0,23,0,12,0,23,0,12,0,0,0,0,0,0,0,0,3,1,19,2,4,11,4,19,0,2,11,1,23,0,0,12,3,1,4,19,0,2,11,1,23,0,0,12,3,1,18,5,0,11,8,1,23,0,0,12,3,1,4,19,0,2,11,1,23,0,0,12,3,1,23,0,0,12,3,1,0,23,0,0,12,1,0,23,0,0,12,1,23,0,0,12,4,1,23,0,0,12,3,1,0,2,21,1,4,12
2017-07-06T23:59:48Z,12,23,20,11,23,12,20,11,20,11,0,0,0,0,0,0,0,23,0,12,0,23,0,12,0,0,0,0,0,0,0,0,3,1,19,2,4,11,4,19,0,2,11,1,23,0,0,12,3,1,4,19,0,2,11,1,23,0,0,12,3,1,23,0,0,12,4,1,23,0,0,12,3,1,4,19,0,2,11,1,23,0,0,12,3,1,23,0,0,12,3,1,1,22,0,1,12,1,0,23,0,0,12,1,23,0,0,12,4,1,23,0,0,12,3,1,0,2,21,1,4,12
2017-07-07T23:59:47Z,12,23,20,11,23,12,19,11,19,11,0,0,0,0,0,0,0,23,0,12,0,23,0,12,0,0,0,0,0,0,0,0,3,1,19,2,4,11,4,19,0,2,11,1,23,0,0,12,3,1,4,19,0,2,11,1,23,0,0,12,3,1,22,0,1,12,4,2,23,0,0,12,3,1,4,19,0,2,11,1,23,0,0,12,3,1,23,0,0,12,3,1,0,23,0,0,12,1,0,23,0,0,12,1,23,0,0,12,4,1,23,0,0,12,3,1,0,2,21,1,4,12
2017-07-08T23:59:50Z,12,23,20,11,23,12,20,11,20,11,0,0,0,0,0,0,0,23,0,12,0,23,0,12,0,0,0,0,0,0,0,0,3,1,19,2,4,11,4,19,0,2,11,1,23,0,0,12,3,1,4,19,0,2,11,1,23,0,0,12,3,1,23,0,0,12,4,1,23,0,0,12,3,1,4,19,0,2,11,1,23,0,0,12,3,1,23,0,0,12,3,1,0,23,0,0,12,1,0,23,0,0,12,1,23,0,0,12,4,1,23,0,0,12,3,1,0,2,21,1,4,12
2017-07-09T23:59:50Z,12,23,20,11,23,12,20,11,20,11,0,0,0,0,0,0,0,23,0,12,0,23,0,12,0,0,0,0,0,0,0,0,3,1,19,2,4,11,4,19,0,2,11,1,23,0,0,12,3,1,4,19,0,2,11,1,23,0,0,12,3,1,23,0,0,12,4,1,23,0,0,12,3,1,4,19,0,2,11,1,23,0,0,12,3,1,23,0,0,12,3,1,0,23,0,0,12,1,0,23,0,0,12,1,23,0,0,12,4,1,23,0,0,12,3,1,0,2,21,1,4,12
2017-07-10T23:59:47Z,12,23,20,11,23,12,20,11,20,11,0,0,0,0,0,0,0,23,0,12,0,23,0,12,0,0,0,0,0,0,0,0,3,1,19,2,4,11,4,19,0,2,11,1,23,0,0,12,3,1,4,19,0,2,11,1,23,0,0,12,3,1,23,0,0,12,4,1,23,0,0,12,3,1,4,19,0,2,11,1,23,0,0,12,3,1,23,0,0,12,3,1,0,23,0,0,12,1,0,23,0,0,12,1,23,0,0,12,4,1,23,0,0,12,3,1,0,2,21,1,4,12
2017-07-11T23:59:48Z,12,23,20,11,23,12,20,11,20,11,0,0,0,0,0,0,0,23,0,12,0,23,0,12,0,0,0,0,0,0,0,0,3,1,19,2,4,11,4,19,0,2,11,1,23,0,0,12,3,1,4,19,0,2,11,1,23,0,0,12,3,1,23,0,0,12,4,1,23,0,0,12,3,1,4,19,0,2,11,1,23,0,0,12,3,1,23,0,0,12,3,1,0,23,0,0,12,1,0,23,0,0,12,1,23,0,0,12,4,1,23,0,0,12,3,1,0,2,21,1,4,12
2017-07-12T23:59:49Z,12,23,20,11,23,12,20,11,20,11,0,0,0,0,0,0,0,23,0,12,0,23,0,12,0,0,0,0,0,0,0,0,3,1,19,2,4,11,4,19,0,2,11,1,23,0,0,12,3,1,4,19,0,2,11,1,23,0,0,12,3,1,23,0,0,12,4,1,23,0,0,12,3,1,4,19,0,2,11,1,23,0,0,12,3,1,23,0,0,12,3,1,0,23,0,0,12,1,0,23,0,0,12,1,23,0,0,12,4,1,23,0,0,12,3,1,0,2,21,1,4,12
2017-07-13T23:59:49Z,12,23,20,11,23,12,20,11,20,11,0,0,0,0,0,0,0,23,0,12,0,23,0,12,0,0,0,0,0,0,0,0,3,1,19,2,4,11,4,19,0,2,11,1,23,0,0,12,3,1,4,19,0,2,11,1,23,0,0,12,3,1,23,0,0,12,4,1,23,0,0,12,3,1,4,19,0,2,11,1,23,0,0,12,3,1,23,0,0,12,3,1,0,23,0,0,12,1,0,23,0,0,12,1,23,0,0,12,4,1,23,0,0,12,3,1,0,2,21,1,4,12
2017-07-14T23:59:50Z,12,23,20,11,23,12,20,11,20,11,0,0,0,0,0,0,0,23,0,12,0,23,0,12,0,0,0,0,0,0,0,0,3,1,19,2,4,11,4,19,0,2,11,1,23,0,0,12,3,1,4,19,0,2,11,1,23,0,0,12,3,1,23,0,0,12,4,1,23,0,0,12,3,1,4,19,0,2,11,1,23,0,0,12,3,1,23,0,0,12,3,1,0,23,0,0,12,1,0,23,0,0,12,1,23,0,0,12,4,1,23,0,0,12,3,1,0,2,21,1,4,12
2017-07-15T23:59:50Z,12,23,20,11,23,12,20,11,20,11,0,0,0,0,0,0,0,23,0,12,0,23,0,12,0,0,0,0,0,0,0,0,3,1,19,2,4,11,4,19,0,2,11,1,23,0,0,12,3,1,4,19,0,2,11,1,23,0,0,12,3,1,23,0,0,12,4,1,23,0,0,12,3,1,4,19,0,2,11,1,23,0,0,12,3,1,23,0,0,12,3,1,0,23,0,0,12,1,0,23,0,0,12,1,23,0,0,12,4,1,23,0,0,12,3,1,0,2,21,1,4,12
2017-07-16T23:59:50Z,12,23,20,11,23,12,20,11,20,11,0,0,0,0,0,0,0,23,0,12,0,23,0,12,0,0,0,0,0,0,0,0,3,1,19,2,4,11,4,19,0,2,11,1,23,0,0,12,3,1,4,19,0,2,11,1,23,0,0,12,3,1,23,0,0,12,4,1,23,0,0,12,3,1,4,19,0,2,11,1,23,0,0,12,3,1,23,0,0,12,3,1,0,23,0,0,12,1,0,23,0,0,12,1,23,0,0,12,4,1,23,0,0,12,3,1,0,2,21,1,4,12
2017-07-17T23:59:48Z,12,23,20,11,23,12,20,11,20,11,0,0,0,0,0,0,0,23,0,12,0,23,0,12,0,0,0,0,0,0,0,0,3,1,19,2,4,11,4,19,0,2,11,1,23,0,0,12,3,1,4,19,0,2,11,1,23,0,0,12,3,1,23,0,0,12,4,1,23,0,0,12,3,1,4,19,0,2,11,1,23,0,0,12,3,1,23,0,0,12,3,1,0,23,0,0,12,1,0,23,0,0,12,1,23,0,0,12,4,1,23,0,0,12,3,1,0,2,21,1,4,12
2017-07-18T23:59:49Z,12,23,20,11,23,12,20,11,20,11,0,0,0,0,0,0,0,23,0,12,0,23,0,12,0,0,0,0,0,0,0,0,3,1,19,2,4,11,4,19,0,2,11,1,23,0,0,12,3,1,4,19,0,2,11,1,23,0,0,12,3,1,23,0,0,12,4,1,23,0,0,12,3,1,4,19,0,2,11,1,23,0,0,12,3,1,23,0,0,12,3,1,0,23,0,0,12,1,0,23,0,0,12,1,23,0,0,12,4,1,23,0,0,12,3,1,0,2,21,1,4,12
2017-07-19T23:59:47Z,12,23,20,11,23,12,20,11,20,11,0,0,0,0,0,0,0,23,0,12,0,23,0,12,0,0,0,0,0,0,0,0,3,1,19,2,4,11,4,19,0,2,11,1,23,0,0,12,3,1,4,19,0,2,11,1,23,0,0,12,3,1,23,0,0,12,4,1,23,0,0,12,3,1,4,19,0,2,11,1,23,0,0,12,3,1,23,0,0,12,3,1,0,23,0,0,12,1,0,23,0,0,12,1,23,0,0,12,4,1,23,0,0,12,3,1,0,2,21,1,4,12
2017-07-20T23:59:49Z,12,23,20,11,23,12,20,11,20,11,0,0,0,0,0,0,0,23,0,12,0,23,0,12,0,0,0,0,0,0,0,0,3,1,19,2,4,11,4,19,0,2,11,1,23,0,0,12,3,1,4,19,0,2,11,1,23,0,0,12,3,1,23,0,0,12,4,1,23,0,0,12,3,1,4,19,0,2,11,1,23,0,0,12,3,1,23,0,0,12,3,1,0,23,0,0,12,1,0,23,0,0,12,1,23,0,0,12,4,1,23,0,0,12,3,1,0,2,21,1,4,12
2017-07-21T23:59:50Z,12,23,20,11,23,12,20,11,20,11,0,0,0,0,0,0,0,23,0,12,0,23,0,12,0,0,0,0,0,0,0,0,3,1,19,2,4,11,4,19,0,2,11,1,23,0,0,12,3,1,4,19,0,2,11,1,23,0,0,12,3,1,23,0,0,12,4,1,23,0,0,12,3,1,4,18,1,2,11,2,23,0,0,12,3,1,23,0,0,12,3,1,0,22,1,0,12,2,0,23,0,0,12,1,23,0,0,12,4,1,23,0,0,12,3,1,0,2,21,1,4,12
2017-07-22T23:59:46Z,12,23,20,11,23,12,20,11,20,11,0,0,0,0,0,0,0,23,0,12,0,23,0,12,0,0,0,0,0,0,0,0,3,1,19,2,4,11,4,19,0,2,11,1,23,0,0,12,3,1,4,19,0,2,11,1,23,0,0,12,3,1,23,0,0,12,4,1,23,0,0,12,3,1,4,19,0,2,11,1,23,0,0,12,3,1,23,0,0,12,3,1,0,23,0,0,12,1,0,23,0,0,12,1,23,0,0,12,4,1,23,0,0,12,3,1,0,2,21,1,4,12
2017-07-23T23:59:48Z,12,23,20,11,23,12,20,11,20,11,0,0,0,0,0,0,0,23,0,12,0,23,0,12,0,0,0,0,0,0,0,0,3,1,19,2,4,11,4,19,0,2,11,1,23,0,0,12,3,1,4,19,0,2,11,1,23,0,0,12,3,1,23,0,0,12,4,1,23,0,0,12,3,1,4,19,0,2,11,1,23,0,0,12,3,1,23,0,0,12,3,1,0,23,0,0,12,1,0,23,0,0,12,1,23,0,0,12,4,1,23,0,0,12,3,1,0,2,21,1,4,12
2017-07-24T23:59:50Z,12,23,20,11,23,12,20,11,20,11,0,0,0,0,0,0,0,23,0,12,0,23,0,12,0,0,0,0,0,0,0,0,3,1,19,2,4,11,4,19,0,2,11,1,23,0,0,12,3,1,4,19,0,2,11,1,23,0,0,12,3,1,23,0,0,12,4,1,23,0,0,12,3,1,4,19,0,2,11,1,23,0,0,12,3,1,23,0,0,12,3,1,0,23,0,0,12,1,0,23,0,0,12,1,23,0,0,12,4,1,23,0,0,12,3,1,0,2,21,1,4,12
2017-07-25T23:59:55Z,12,23,20,11,23,12,20,11,20,11,0,0,0,0,0,0,0,23,0,12,0,23,0,12,0,0,0,0,0,0,0,0,3,1,19,2,4,11,4,19,0,2,11,1,23,0,0,12,3,1,4,19,0,2,11,1,23,0,0,12,3,1,23,0,0,12,4,1,23,0,0,12,3,1,4,19,0,2,11,1,23,0,0,12,3,1,23,0,0,12,3,1,0,23,0,0,12,1,0,23,0,0,12,1,23,0,0,12,4,1,23,0,0,12,3,1,0,2,21,1,4,12
2017-07-26T23:59:47Z,12,23,20,11,23,12,20,11,20,11,0,0,0,0,0,0,0,23,0,12,0,23,0,12,0,0,0,0,0,0,0,0,3,1,19,2,4,11,4,19,0,2,11,1,23,0,0,12,3,1,4,19,0,2,11,1,23,0,0,12,3,1,23,0,0,12,4,1,23,0,0,12,3,1,4,19,0,2,11,1,23,0,0,12,3,1,23,0,0,12,3,1,0,23,0,0,12,1,0,23,0,0,12,1,23,0,0,12,4,1,23,0,0,12,3,1,0,2,21,1,4,12
2017-07-27T23:59:49Z,12,23,20,11,23,12,20,11,20,11,0,0,0,0,0,0,0,23,0,12,0,23,0,12,0,0,0,0,0,0,0,0,3,1,19,2,4,11,4,19,0,2,11,1,23,0,0,12,3,1,4,19,0,2,11,1,23,0,0,12,3,1,23,0,0,12,4,1,23,0,0,12,3,1,4,19,0,2,11,1,23,0,0,12,3,1,23,0,0,12,3,1,0,23,0,0,12,1,0,23,0,0,12,1,23,0,0,12,4,1,23,0,0,12,3,1,0,2,21,1,4,12
2017-07-28T23:59:48Z,12,23,20,11,23,12,20,11,20,11,0,0,0,0,0,0,0,23,0,12,0,23,0,12,0,0,0,0,0,0,0,0,3,1,19,2,4,11,4,19,0,2,11,1,23,0,0,12,3,1,4,19,0,2,11,1,23,0,0,12,3,1,23,0,0,12,4,1,23,0,0,12,3,1,4,19,0,2,11,1,23,0,0,12,3,1,23,0,0,12,3,1,0,23,0,0,12,1,0,23,0,0,12,1,23,0,0,12,4,1,23,0,0,12,3,1,0,2,21,1,4,12
2017-07-29T23:59:48Z,12,23,20,11,22,12,20,11,20,11,0,0,0,0,0,0,0,23,0,12,0,23,0,12,0,0,0,0,0,0,0,0,3,1,19,2,4,11,4,19,0,2,11,1,23,0,0,12,3,1,4,19,0,2,11,1,23,0,0,12,3,1,23,0,0,12,4,1,23,0,0,12,3,1,4,19,0,2,11,1,23,0,0,12,3,1,23,0,0,12,3,1,0,23,0,0,12,1,0,23,0,0,12,1,23,0,0,12,4,1,22,0,1,12,3,2,0,2,21,1,4,12
2017-07-30T23:59:54Z,12,23,20,11,23,12,20,11,20,11,0,0,0,0,0,0,0,23,0,12,0,23,0,12,0,0,0,0,0,0,0,0,3,1,19,2,4,11,4,19,0,2,11,1,23,0,0,12,3,1,4,19,0,2,11,1,22,0,1,12,3,2,23,0,0,12,4,1,23,0,0,12,3,1,4,19,0,2,11,1,23,0,0,12,3,1,23,0,0,12,3,1,0,23,0,0,12,1,0,23,0,0,12,1,23,0,0,12,4,1,23,0,0,12,3,1,0,2,21,1,4,12
2017-07-31T23:59:48Z,12,23,20,11,23,12,20,11,20,11,0,0,0,0,0,0,0,23,0,12,0,23,0,12,0,0,0,0,0,0,0,0,3,1,19,2,4,11,4,19,0,2,11,1,23,0,0,12,3,1,4,19,0,2,11,1,23,0,0,12,3,1,23,0,0,12,4,1,23,0,0,12,3,1,4,19,0,2,11,1,23,0,0,12,3,1,23,0,0,12,3,1,0,23,0,0,12,1,0,23,0,0,12,1,23,0,0,12,4,1,23,0,0,12,3,1,0,2,21,1,4,12
2017-08-01T23:59:47Z,12,23,20,11,23,12,20,11,20,11,0,0,0,0,0,0,0,23,0,12,0,23,0,12,0,0,0,0,0,0,0,0,3,1,19,2,4,11,4,19,0,2,11,1,23,0,0,12,3,1,4,19,0,2,11,1,23,0,0,12,3,1,23,0,0,12,4,1,23,0,0,12,3,1,4,19,0,2,11,1,23,0,0,12,3,1,23,0,0,12,3,1,0,23,0,0,12,1,0,23,0,0,12,1,23,0,0,12,4,1,23,0,0,12,3,1,0,2,21,1,4,12
2017-08-02T23:59:50Z,12,23,20,11,23,12,20,11,19,11,0,0,0,0,0,0,0,23,0,12,0,23,0,12,0,0,0,0,0,0,0,0,3,1,19,2,4,11,4,19,0,2,11,1,23,0,0,12,3,1,4,19,0,2,11,1,23,0,0,12,3,1,23,0,0,12,4,1,23,0,0,12,3,1,4,19,0,2,11,1,23,0,0,12,3,1,23,0,0,12,3,1,0,23,0,0,12,1,0,23,0,0,12,1,23,0,0,12,4,1,23,0,0,12,3,1,0,2,21,1,4,12
2017-08-03T23:59:47Z,12,23,20,11,23,12,20,11,20,11,0,0,0,0,0,0,0,23,0,12,0,23,0,12,0,0,0,0,0,0,0,0,3,1,19,2,4,11,4,19,0,2,11,1,23,0,0,12,3,1,4,19,0,2,11,1,23,0,0,12,3,1,23,0,0,12,4,1,23,0,0,12,3,1,4,19,0,2,11,1,23,0,0,12,3,1,23,0,0,12,3,1,0,23,0,0,12,1,0,23,0,0,12,1,23,0,0,12,4,1,23,0,0,12,3,1,0,2,21,1,4,12
2017-08-04T23:59:48Z,12,23,20,11,23,12,18,11,20,11,0,0,0,0,0,0,0,23,0,12,0,23,0,12,0,0,0,0,0,0,0,0,3,1,19,2,4,11,4,19,0,2,11,1,23,0,0,12,3,1,4,19,0,2,11,1,23,0,0,12,3,1,23,0,0,12,4,1,23,0,0,12,3,1,4,19,0,2,11,1,23,0,0,12,3,1,23,0,0,12,3,1,0,23,0,0,12,1,0,23,0,0,12,1,23,0,0,12,4,1,23,0,0,12,3,1,0,2,21,1,4,12
2017-08-05T23:59:45Z,12,23,20,11,23,12,20,11,20,11,0,0,0,0,0,0,0,23,0,12,0,23,0,12,0,0,0,0,0,0,0,0,3,1,19,2,4,11,4,19,0,2,11,1,23,0,0,12,3,1,4,19,0,2,11,1,23,0,0,12,3,1,23,0,0,12,4,1,23,0,0,12,3,1,4,19,0,2,11,1,23,0,0,12,3,1,23,0,0,12,3,1,0,23,0,0,12,1,0,23,0,0,12,1,23,0,0,12,4,1,23,0,0,12,3,1,0,2,21,1,4,12
2017-08-06T23:59:44Z,11,20,17,10,20,11,17,10,17,10,0,0,0,0,0,0,0,20,0,11,0,20,0,11,0,0,0,0,0,0,0,0,3,1,16,2,4,10,4,16,0,2,10,1,20,0,0,11,3,1,4,16,0,2,10,1,20,0,0,11,3,1,20,0,0,11,4,1,20,0,0,11,3,1,4,16,0,2,10,1,20,0,0,11,3,1,20,0,0,11,3,1,0,20,0,0,11,1,0,20,0,0,11,1,20,0,0,11,4,1,20,0,0,11,3,1,0,2,18,1,4,11
2017-08-07T23:59:46Z,11,20,17,10,20,11,17,10,17,10,0,0,0,0,0,0,0,20,0,11,0,20,0,11,0,0,0,0,0,0,0,0,3,1,16,2,4,10,4,16,0,2,10,1,20,0,0,11,3,1,4,16,0,2,10,1,20,0,0,11,3,1,20,0,0,11,4,1,20,0,0,11,3,1,4,16,0,2,10,1,20,0,0,11,3,1,20,0,0,11,3,1,0,20,0,0,11,1,0,20,0,0,11,1,20,0,0,11,4,1,13,7,0,8,7,1,0,2,18,1,4,11
2017-08-08T23:59:46Z,11,20,17,10,20,11,17,10,17,10,0,0,0,0,0,0,0,20,0,11,0,20,0,11,0,0,0,0,0,0,0,0,3,1,16,2,4,10,4,16,0,2,10,1,20,0,0,11,3,1,4,16,0,2,10,1,20,0,0,11,3,1,20,0,0,11,4,1,20,0,0,11,3,1,4,16,0,2,10,1,20,0,0,11,3,1,20,0,0,11,3,1,0,20,0,0,11,1,0,20,0,0,11,1,20,0,0,11,4,1,14,6,0,9,7,1,0,2,18,1,4,11
2017-08-09T23:59:45Z,11,20,17,10,20,11,17,10,17,10,0,0,0,0,0,0,0,20,0,11,0,20,0,11,0,0,0,0,0,0,0,0,3,1,16,2,4,10,4,16,0,2,10,1,20,0,0,11,3,1,4,16,0,2,10,1,20,0,0,11,3,1,20,0,0,11,4,1,20,0,0,11,3,1,4,16,0,2,10,1,20,0,0,11,3,1,20,0,0,11,3,1,0,20,0,0,11,1,0,20,0,0,11,1,20,0,0,11,4,1,18,2,0,11,4,1,0,2,18,1,4,11
2017-08-10T23:59:47Z,11,20,17,10,20,11,17,10,17,10,0,0,0,0,0,0,0,20,0,11,0,20,0,11,0,0,0,0,0,0,0,0,3,1,16,2,4,10,4,16,0,2,10,1,20,0,0,11,3,1,4,16,0,2,10,1,20,0,0,11,3,1,20,0,0,11,4,1,20,0,0,11,3,1,4,16,0,2,10,1,20,0,0,11,3,1,20,0,0,11,3,1,0,20,0,0,11,1,0,20,0,0,11,1,20,0,0,11,4,1,15,5,0,10,7,1,0,2,18,1,4,11
2017-08-11T23:59:46Z,11,20,17,10,20,11,17,10,17,10,0,0,0,0,0,0,0,20,0,11,0,20,0,11,0,0,0,0,0,0,0,0,3,1,16,2,4,10,4,16,0,2,10,1,20,0,0,11,3,1,4,16,0,2,10,1,20,0,0,11,3,1,20,0,0,11,4,1,20,0,0,11,3,1,4,16,0,2,10,1,20,0,0,11,3,1,20,0,0,11,3,1,0,20,0,0,11,1,0,20,0,0,11,1,20,0,0,11,4,1,18,2,0,11,6,1,0,2,18,1,4,11
2017-08-12T23:59:46Z,11,20,17,10,20,11,17,10,17,10,0,0,0,0,0,0,0,20,0,11,0,20,0,11,0,0,0,0,0,0,0,0,3,1,16,2,4,10,4,16,0,2,10,1,20,0,0,11,3,1,4,16,0,2,10,1,20,0,0,11,3,1,20,0,0,11,4,1,20,0,0,11,3,1,4,16,0,2,10,1,20,0,0,11,3,1,20,0,0,11,3,1,0,20,0,0,11,1,0,20,0,0,11,1,20,0,0,11,4,1,15,5,0,9,5,1,0,2,18,1,4,11
2017-08-13T23:59:46Z,10,18,15,9,18,10,14,9,15,9,0,0,0,0,0,0,0,18,0,10,0,18,0,10,0,0,0,0,0,0,0,0,3,1,14,2,4,9,4,14,0,2,9,1,18,0,0,10,3,1,4,14,0,2,9,1,18,0,0,10,3,1,18,0,0,10,4,1,18,0,0,10,3,1,4,14,0,2,9,1,18,0,0,10,3,1,18,0,0,10,3,1,0,18,0,0,10,1,0,18,0,0,10,1,18,0,0,10,4,1,16,2,0,10,5,1,0,2,16,1,4,10
2017-08-14T23:59:46Z,10,18,15,9,18,10,15,9,15,9,0,0,0,0,0,0,0,18,0,10,0,18,0,10,0,0,0,0,0,0,0,0,3,1,14,2,4,9,4,14,0,2,9,1,18,0,0,10,3,1,4,14,0,2,9,1,18,0,0,10,3,1,18,0,0,10,4,1,18,0,0,10,3,1,4,14,0,2,9,1,18,0,0,10,3,1,18,0,0,10,3,1,0,18,0,0,10,1,0,18,0,0,10,1,18,0,0,10,4,1,16,2,0,10,6,1,0,2,16,1,4,10
2017-08-15T23:59:44Z,10,18,15,9,18,10,15,9,15,9,0,0,0,0,0,0,0,18,0,10,0,18,0,10,0,0,0,0,0,0,0,0,3,1,14,2,4,9,4,14,0,2,9,1,18,0,0,10,3,1,4,14,0,2,9,1,18,0,0,10,3,1,18,0,0,10,4,1,18,0,0,10,3,1,4,14,0,2,9,1,18,0,0,10,3,1,18,0,0,10,3,1,0,18,0,0,10,1,0,18,0,0,10,1,18,0,0,10,4,1,12,6,0,8,7,1,0,2,16,1,4,10
2017-08-16T23:59:47Z,10,18,15,9,18,10,15,9,15,9,0,0,0,0,0,0,0,18,0,10,0,18,0,10,0,0,0,0,0,0,0,0,3,1,14,2,4,9,4,14,0,2,9,1,18,0,0,10,3,1,4,14,0,2,9,1,18,0,0,10,3,1,18,0,0,10,4,1,18,0,0,10,3,1,4,14,0,2,9,1,18,0,0,10,3,1,18,0,0,10,3,1,0,18,0,0,10,1,0,18,0,0,10,1,18,0,0,10,4,1,18,0,0,10,4,1,0,2,16,1,4,10
2017-08-17T23:59:46Z,11,19,16,10,19,11,16,10,16,10,0,0,0,0,0,0,0,19,0,11,0,19,0,11,0,0,0,0,0,0,0,0,3,1,15,3,5,10,4,15,0,3,10,1,19,0,0,11,4,1,4,15,0,3,10,1,19,0,0,11,4,1,19,0,0,11,5,1,19,0,0,11,4,1,4,15,0,2,10,1,19,0,0,11,4,1,19,0,0,11,4,1,0,19,0,0,11,1,0,19,0,0,11,1,19,0,0,11,5,1,19,0,0,11,5,1,0,2,17,2,4,11
2017-08-18T23:59:43Z,11,19,16,10,19,11,16,10,16,10,0,0,0,0,0,0,1,18,1,11,0,19,0,11,0,0,0,0,0,0,0,0,3,1,15,3,5,10,4,15,0,3,10,1,19,0,0,11,4,1,4,15,0,3,10,1,19,0,0,11,4,1,19,0,0,11,5,1,19,0,0,11,4,1,4,15,0,2,10,1,19,0,0,11,4,1,19,0,0,11,4,1,0,19,0,0,11,1,0,19,0,0,11,1,19,0,0,11,5,1,19,0,0,11,5,1,0,2,17,2,4,11
2017-08-19T23:59:46Z,11,19,16,10,19,11,16,10,16,10,0,0,0,0,0,0,0,19,0,11,0,19,0,11,0,0,0,0,0,0,0,0,3,1,15,3,5,10,4,15,0,3,10,1,19,0,0,11,4,1,4,15,0,3,10,1,19,0,0,11,4,1,19,0,0,11,5,1,19,0,0,11,4,1,4,15,0,2,10,1,19,0,0,11,4,1,19,0,0,11,4,1,0,19,0,0,11,1,0,19,0,0,11,1,19,0,0,11,5,1,19,0,0,11,5,1,0,2,17,2,4,11
2017-08-20T23:59:44Z,11,19,16,10,19,11,16,10,16,10,0,0,0,0,0,0,0,19,0,11,0,19,0,11,0,0,0,0,0,0,0,0,3,1,15,3,5,10,4,15,0,3,10,1,19,0,0,11,4,1,4,15,0,3,10,1,19,0,0,11,4,1,19,0,0,11,5,1,19,0,0,11,4,1,4,15,0,2,10,1,19,0,0,11,4,1,19,0,0,11,4,1,0,19,0,0,11,1,0,19,0,0,11,1,19,0,0,11,5,1,19,0,0,11,5,1,0,2,17,2,4,11
2017-08-21T23:59:47Z,11,19,16,10,18,10,16,10,16,10,0,0,0,0,0,0,0,19,0,11,0,19,0,11,0,0,0,0,0,0,0,0,3,1,15,3,5,10,4,15,0,3,10,1,19,0,0,11,4,1,4,15,0,3,10,1,19,0,0,11,4,1,19,0,0,11,5,1,19,0,0,11,4,1,4,15,0,2,10,1,19,0,0,11,4,1,19,0,0,11,4,1,0,19,0,0,11,1,0,19,0,0,11,1,19,0,0,11,5,1,19,0,0,11,5,1,0,2,17,2,4,11
2017-08-22T23:59:47Z,11,19,16,10,19,11,16,10,16,10,0,0,0,0,0,0,0,19,0,11,0,19,0,11,0,0,0,0,0,0,0,0,3,1,15,3,5,10,4,14,1,3,10,2,19,0,0,11,4,1,4,15,0,3,10,1,19,0,0,11,4,1,19,0,0,11,5,1,19,0,0,11,4,1,4,15,0,2,10,1,19,0,0,11,4,1,19,0,0,11,4,1,0,19,0,0,11,1,0,19,0,0,11,1,19,0,0,11,5,1,19,0,0,11,5,1,0,2,17,2,4,11
2017-08-23T23:59:47Z,11,19,16,10,19,11,16,10,16,10,0,0,0,0,0,0,0,19,0,11,0,19,0,11,0,0,0,0,0,0,0,0,3,1,15,3,5,10,4,15,0,3,10,1,19,0,0,11,4,1,4,15,0,3,10,1,19,0,0,11,4,1,19,0,0,11,5,1,19,0,0,11,4,1,4,15,0,2,10,1,19,0,0,11,4,1,19,0,0,11,4,1,0,19,0,0,11,1,0,19,0,0,11,1,19,0,0,11,5,1,19,0,0,11,5,1,0,2,17,2,4,11
2017-08-24T23:59:44Z,11,19,16,10,19,11,16,10,16,10,0,0,0,0,0,0,0,19,0,11,0,19,0,11,0,0,0,0,0,0,0,0,3,1,15,3,5,10,4,15,0,3,10,1,19,0,0,11,4,1,4,15,0,3,10,1,19,0,0,11,4,1,19,0,0,11,5,1,19,0,0,11,4,1,4,15,0,2,10,1,19,0,0,11,4,1,19,0,0,11,4,1,0,19,0,0,11,1,0,19,0,0,11,1,19,0,0,11,5,1,19,0,0,11,5,1,0,2,17,2,4,11
2017-08-25T23:59:44Z,11,19,16,10,19,11,16,10,16,10,0,0,0,0,0,0,0,19,0,11,0,19,0,11,0,0,0,0,0,0,0,0,3,1,15,3,5,10,4,15,0,3,10,1,19,0,0,11,4,1,4,15,0,3,10,1,19,0,0,11,4,1,19,0,0,11,5,1,19,0,0,11,4,1,4,15,0,2,10,1,19,0,0,11,4,1,19,0,0,11,4,1,0,19,0,0,11,1,0,19,0,0,11,1,19,0,0,11,5,1,19,0,0,11,5,1,0,2,17,2,4,11
2017-08-26T23:59:45Z,12,21,18,11,21,12,18,11,18,11,0,0,0,0,0,0,0,21,0,12,0,21,0,12,0,0,0,0,0,0,0,0,3,1,17,3,5,11,4,17,0,3,11,1,21,0,0,12,4,1,4,17,0,3,11,1,21,0,0,12,4,1,21,0,0,12,5,1,21,0,0,12,4,1,4,17,0,2,11,1,21,0,0,12,4,1,21,0,0,12,4,1,0,21,0,0,12,1,0,21,0,0,12,1,21,0,0,12,5,1,21,0,0,12,5,1,0,2,19,2,4,12
2017-08-27T23:59:44Z,12,21,18,11,21,12,18,11,18,11,0,0,0,0,0,0,0,21,0,12,0,21,0,12,0,0,0,0,0,0,0,0,3,1,17,3,5,11,4,17,0,3,11,1,21,0,0,12,4,1,4,17,0,3,11,1,21,0,0,12,4,1,21,0,0,12,5,1,21,0,0,12,4,1,4,17,0,2,11,1,21,0,0,12,4,1,21,0,0,12,4,1,0,21,0,0,12,1,0,21,0,0,12,1,21,0,0,12,5,1,21,0,0,12,5,1,0,2,19,2,4,12
2017-08-28T23:59:47Z,12,21,18,11,21,12,17,11,18,11,0,0,0,0,0,0,0,21,0,12,0,21,0,12,0,0,0,0,0,0,0,0,3,1,17,3,5,11,4,17,0,3,11,1,21,0,0,12,4,1,4,17,0,3,11,1,21,0,0,12,4,1,21,0,0,12,5,1,21,0,0,12,4,1,4,17,0,2,11,1,21,0,0,12,4,1,21,0,0,12,4,1,0,21,0,0,12,1,0,21,0,0,12,1,21,0,0,12,5,1,21,0,0,12,5,1,0,2,19,2,4,12